weather.gov     
National Weather Service

Terminal Aerodrome Forecast
NWS Homepage
This page is being discontinued on March 12, 2014.
The same data is available at this site. Please update your bookmarks.
Thank you, and we apologize for the inconvenience.
Please send an email to SR-SRH.Webmaster@noaa.gov with any concerns.


Current Version
Previous Version:    01  02  03  04  05  06  07  08  09  10  11  12  13  14  15  16  17  18  19  20  21  22  23  
[Printable]
732
FTUS45 KGJT 290526
TAFGJT
TAF
KGJT 290526Z 2906/3006 12008KT P6SM SCT250
     FM291500 15004KT P6SM SKC
     FM291900 27005KT P6SM SCT250
     FM300100 05005KT P6SM SCT250=


732
FTUS45 KGJT 290526
TAFGJT
TAF
KGJT 290526Z 2906/3006 12008KT P6SM SCT250
     FM291500 15004KT P6SM SKC
     FM291900 27005KT P6SM SCT250
     FM300100 05005KT P6SM SCT250=




U.S. Dept. of Commerce
NOAA National Weather Service
1325 East West Highway
Silver Spring, MD 20910
E-mail: w-nws.webmaster@noaa.gov
Page last modified: May 16, 2007
NATIONAL WEATHER SERVICE: for Safety, for Work, for Fun - FOR LIFE